Year,Month,Day,Hour,Minute,Value (Times are PST for temperature in C)
2022,04,15,08,26,5.30
2022,04,15,08,27,5.30
2022,04,15,08,28,5.30
2022,04,15,08,29,5.40
2022,04,15,08,30,5.40
2022,04,15,08,31,5.40
2022,04,15,08,32,5.40
2022,04,15,08,33,5.40
2022,04,15,08,34,5.40
2022,04,15,08,35,5.50
2022,04,15,08,36,5.50
2022,04,15,08,37,5.50
2022,04,15,08,38,5.50
2022,04,15,08,39,5.50
2022,04,15,08,40,5.50
2022,04,15,08,41,5.60
2022,04,15,08,42,5.60
2022,04,15,08,43,5.60
2022,04,15,08,44,5.60
2022,04,15,08,45,5.60
2022,04,15,08,46,5.60
2022,04,15,08,47,5.60
2022,04,15,08,48,5.60
2022,04,15,08,49,5.60
2022,04,15,08,50,5.60
2022,04,15,08,51,5.60
2022,04,15,08,52,5.60
2022,04,15,08,53,5.70
2022,04,15,08,54,5.70
2022,04,15,08,55,5.70
2022,04,15,08,56,5.70
2022,04,15,08,57,5.70
2022,04,15,08,58,5.70
2022,04,15,08,59,5.80
2022,04,15,09,00,5.80
2022,04,15,09,01,5.80
2022,04,15,09,02,5.80
2022,04,15,09,03,5.80
2022,04,15,09,04,5.80
2022,04,15,09,05,5.80
2022,04,15,09,06,5.80
2022,04,15,09,07,5.80
2022,04,15,09,08,5.80
2022,04,15,09,09,5.90
2022,04,15,09,10,5.90
2022,04,15,09,11,5.90
2022,04,15,09,12,5.90
2022,04,15,09,13,5.90
2022,04,15,09,14,5.90
2022,04,15,09,15,5.90
2022,04,15,09,16,5.90
2022,04,15,09,17,5.90
2022,04,15,09,18,5.90
2022,04,15,09,19,5.90
2022,04,15,09,20,5.90
2022,04,15,09,21,5.90
2022,04,15,09,22,5.90
2022,04,15,09,23,5.90
2022,04,15,09,24,5.90
2022,04,15,09,25,5.90
2022,04,15,09,26,5.90
2022,04,15,09,27,5.90
2022,04,15,09,28,5.90
2022,04,15,09,29,5.90
2022,04,15,09,30,5.90
2022,04,15,09,31,5.90
2022,04,15,09,32,5.90
2022,04,15,09,33,5.90
2022,04,15,09,34,5.90
2022,04,15,09,35,5.90
2022,04,15,09,36,5.90
2022,04,15,09,37,5.90
2022,04,15,09,38,5.90
2022,04,15,09,39,5.90
2022,04,15,09,40,5.90
2022,04,15,09,41,5.90
2022,04,15,09,42,5.90
2022,04,15,09,43,5.90
2022,04,15,09,44,5.90
2022,04,15,09,45,6.00
2022,04,15,09,46,6.00
2022,04,15,09,47,6.00
2022,04,15,09,48,6.00
2022,04,15,09,49,6.10
2022,04,15,09,50,6.10
2022,04,15,09,51,6.10
2022,04,15,09,52,6.10
2022,04,15,09,53,6.20
2022,04,15,09,54,6.20
2022,04,15,09,55,6.20
2022,04,15,09,56,6.20
2022,04,15,09,57,6.20
2022,04,15,09,58,6.20
2022,04,15,09,59,6.30
2022,04,15,10,00,6.30
2022,04,15,10,01,6.30
2022,04,15,10,02,6.40
2022,04,15,10,03,6.40
2022,04,15,10,04,6.40
2022,04,15,10,05,6.40
2022,04,15,10,06,6.50
2022,04,15,10,07,6.50
2022,04,15,10,08,6.50
2022,04,15,10,09,6.50
2022,04,15,10,10,6.50
2022,04,15,10,11,6.50
2022,04,15,10,12,6.50
2022,04,15,10,13,6.50
2022,04,15,10,14,6.50
2022,04,15,10,15,6.50
2022,04,15,10,16,6.50
2022,04,15,10,17,6.50
2022,04,15,10,18,6.50
2022,04,15,10,19,6.60
2022,04,15,10,20,6.60
2022,04,15,10,21,6.60
2022,04,15,10,22,6.60
2022,04,15,10,23,6.60
2022,04,15,10,24,6.60
2022,04,15,10,25,6.60
2022,04,15,10,26,6.60
2022,04,15,10,27,6.60
2022,04,15,10,28,6.60
2022,04,15,10,29,6.60
2022,04,15,10,30,6.60
2022,04,15,10,31,6.60
2022,04,15,10,32,6.60
2022,04,15,10,33,6.60
2022,04,15,10,34,6.60
2022,04,15,10,35,6.70
2022,04,15,10,36,6.70
2022,04,15,10,37,6.70
2022,04,15,10,38,6.80
2022,04,15,10,39,6.80
2022,04,15,10,40,6.80
2022,04,15,10,41,6.90
2022,04,15,10,42,6.90
2022,04,15,10,43,6.90
2022,04,15,10,44,6.90
2022,04,15,10,45,6.90
2022,04,15,10,46,7.00
2022,04,15,10,47,7.00
2022,04,15,10,48,7.00
2022,04,15,10,49,7.10
2022,04,15,10,50,7.10
2022,04,15,10,51,7.10
2022,04,15,10,52,7.10
2022,04,15,10,53,7.10
2022,04,15,10,54,7.10
2022,04,15,10,55,7.10
2022,04,15,10,56,7.10
2022,04,15,10,57,7.00
2022,04,15,10,58,7.00
2022,04,15,10,59,7.00
2022,04,15,11,00,7.00
2022,04,15,11,01,7.00
2022,04,15,11,02,7.00
2022,04,15,11,03,7.00
2022,04,15,11,04,7.00
2022,04,15,11,05,7.00
2022,04,15,11,06,7.00
2022,04,15,11,07,7.10
2022,04,15,11,08,7.10
2022,04,15,11,09,7.20
2022,04,15,11,10,7.20
2022,04,15,11,11,7.20
2022,04,15,11,12,7.30
2022,04,15,11,13,7.30
2022,04,15,11,14,7.30
2022,04,15,11,15,7.40
2022,04,15,11,16,7.40
2022,04,15,11,17,7.40
2022,04,15,11,18,7.50
2022,04,15,11,19,7.60
2022,04,15,11,20,7.60
2022,04,15,11,21,7.70
2022,04,15,11,22,7.70
2022,04,15,11,23,7.70
2022,04,15,11,24,7.70
2022,04,15,11,25,7.70
2022,04,15,11,26,7.70
2022,04,15,11,27,7.70
2022,04,15,11,28,7.70
2022,04,15,11,29,7.70
2022,04,15,11,30,7.70
2022,04,15,11,31,7.60
2022,04,15,11,32,7.70
2022,04,15,11,33,7.60
2022,04,15,11,34,7.60
2022,04,15,11,35,7.60
2022,04,15,11,36,7.60
2022,04,15,11,37,7.60
2022,04,15,11,38,7.60
2022,04,15,11,39,7.60
2022,04,15,11,40,7.60
2022,04,15,11,41,7.60
2022,04,15,11,42,7.60
2022,04,15,11,43,7.60
2022,04,15,11,44,7.70
2022,04,15,11,45,7.70
2022,04,15,11,46,7.70
2022,04,15,11,47,7.70
2022,04,15,11,48,7.70
2022,04,15,11,49,7.70
2022,04,15,11,50,7.70
2022,04,15,11,51,7.70
2022,04,15,11,52,7.70
2022,04,15,11,53,7.70
2022,04,15,11,54,7.70
2022,04,15,11,55,7.70
2022,04,15,11,56,7.70
2022,04,15,11,57,7.70
2022,04,15,11,58,7.60
2022,04,15,11,59,7.60
2022,04,15,12,00,7.60
2022,04,15,12,01,7.60
2022,04,15,12,02,7.60
2022,04,15,12,03,7.60
2022,04,15,12,04,7.60
2022,04,15,12,05,7.60
2022,04,15,12,06,7.60
2022,04,15,12,07,7.70
2022,04,15,12,08,7.70
2022,04,15,12,09,7.70
2022,04,15,12,10,7.70
2022,04,15,12,11,7.70
2022,04,15,12,12,7.70
2022,04,15,12,13,7.70
2022,04,15,12,14,7.70
2022,04,15,12,15,7.70
2022,04,15,12,16,7.70
2022,04,15,12,17,7.60
2022,04,15,12,18,7.60
2022,04,15,12,19,7.40
2022,04,15,12,20,7.30
2022,04,15,12,21,7.20
2022,04,15,12,22,7.20
2022,04,15,12,23,7.10
2022,04,15,12,24,7.00
2022,04,15,12,25,6.90
2022,04,15,12,26,6.80
2022,04,15,12,27,6.80
2022,04,15,12,28,6.70
2022,04,15,12,29,6.70
2022,04,15,12,30,6.70
2022,04,15,12,31,6.60
2022,04,15,12,32,6.50
2022,04,15,12,33,6.50
2022,04,15,12,34,6.40
2022,04,15,12,35,6.40
2022,04,15,12,36,6.40
2022,04,15,12,37,6.40
2022,04,15,12,38,6.40
2022,04,15,12,39,6.40
2022,04,15,12,40,6.40
2022,04,15,12,41,6.40
2022,04,15,12,42,6.40
2022,04,15,12,43,6.40
2022,04,15,15,49,5.90
2022,04,15,15,50,5.90
2022,04,15,15,51,6.00
2022,04,15,15,52,6.00
2022,04,15,15,53,6.10
2022,04,15,15,54,6.20
2022,04,15,15,55,6.20
2022,04,15,15,56,6.30
2022,04,15,15,57,6.30
2022,04,15,15,58,6.40
2022,04,15,15,59,6.40
2022,04,15,16,00,6.50
2022,04,15,16,01,6.50
2022,04,15,16,02,6.60
2022,04,15,16,03,6.60
2022,04,15,16,04,6.60
2022,04,15,16,05,6.60
2022,04,15,16,06,6.70
2022,04,15,16,07,6.70
2022,04,15,16,08,6.80
2022,04,15,16,09,6.80
2022,04,15,16,10,6.80
2022,04,15,16,11,6.80
2022,04,15,16,12,6.80
2022,04,15,16,13,6.80
2022,04,15,16,14,6.80
2022,04,15,16,15,6.80
2022,04,15,16,16,6.80
2022,04,15,16,17,6.80
2022,04,15,16,18,6.80
2022,04,15,16,19,6.80
2022,04,15,16,20,6.70
2022,04,15,16,21,6.70
2022,04,15,16,22,6.70
2022,04,15,16,23,6.60
2022,04,15,16,24,6.60
2022,04,15,16,25,6.60
2022,04,15,16,26,6.50
2022,04,15,16,27,6.50
2022,04,15,16,28,6.50
2022,04,15,16,29,6.50
2022,04,15,16,30,6.40
2022,04,15,16,31,6.40
2022,04,15,16,32,6.40
2022,04,15,16,33,6.40
2022,04,15,16,34,6.40
2022,04,15,16,35,6.30
2022,04,15,16,36,6.30
2022,04,15,16,37,6.30
2022,04,15,16,38,6.30
2022,04,15,16,39,6.30
2022,04,15,16,40,6.30
2022,04,15,16,41,6.30
2022,04,15,16,42,6.30
2022,04,15,16,43,6.30
2022,04,15,16,44,6.20
2022,04,15,16,45,6.20
2022,04,15,16,46,6.30
2022,04,15,16,47,6.30
2022,04,15,16,48,6.30
2022,04,15,16,49,6.30
2022,04,15,16,50,6.30
2022,04,15,16,51,6.30
2022,04,15,16,52,6.30
2022,04,15,16,53,6.40
2022,04,15,16,54,6.40
2022,04,15,16,55,6.40
2022,04,15,16,56,6.40
2022,04,15,16,57,6.40
2022,04,15,16,58,6.40
2022,04,15,16,59,6.40
2022,04,15,17,00,6.40
2022,04,15,17,01,6.50
2022,04,15,17,02,6.50
2022,04,15,17,03,6.50
2022,04,15,17,04,6.50
2022,04,15,17,05,6.50
2022,04,15,17,06,6.50
2022,04,15,17,07,6.50
2022,04,15,17,08,6.50
2022,04,15,17,09,6.50
2022,04,15,17,10,6.50
2022,04,15,17,11,6.50
2022,04,15,17,12,6.60
2022,04,15,17,13,6.60
2022,04,15,17,14,6.60
2022,04,15,17,15,6.60
2022,04,15,17,16,6.60
2022,04,15,17,17,6.60
2022,04,15,17,18,6.60
2022,04,15,17,19,6.60
2022,04,15,17,20,6.60
2022,04,15,17,21,6.60
2022,04,15,17,22,6.60
2022,04,15,17,23,6.60
2022,04,15,17,24,6.60
2022,04,15,17,25,6.60
2022,04,15,17,26,6.70
2022,04,15,17,27,6.70
2022,04,15,17,28,6.70
2022,04,15,17,29,6.70
2022,04,15,17,30,6.70
2022,04,15,17,31,6.70
2022,04,15,17,32,6.70
2022,04,15,17,33,6.60
2022,04,15,17,34,6.60
2022,04,15,17,35,6.60
2022,04,15,17,36,6.60
2022,04,15,17,37,6.60
2022,04,15,17,38,6.60
2022,04,15,17,39,6.60
2022,04,15,17,40,6.60
2022,04,15,17,41,6.60
2022,04,15,17,42,6.60
2022,04,15,17,43,6.60
2022,04,15,17,44,6.60
2022,04,15,17,45,6.50
2022,04,15,17,46,6.50
2022,04,15,17,47,6.50
2022,04,15,17,48,6.40
2022,04,15,17,49,6.40
2022,04,15,17,50,6.40
2022,04,15,17,51,6.40
2022,04,15,17,52,6.40
2022,04,15,17,53,6.40
2022,04,15,17,54,6.40
2022,04,15,17,55,6.40
2022,04,15,17,56,6.30
2022,04,15,17,57,6.30
2022,04,15,17,58,6.30
2022,04,15,17,59,6.30
2022,04,15,18,00,6.20
2022,04,15,18,01,6.20
2022,04,15,18,02,6.20
2022,04,15,18,03,6.20
2022,04,15,18,04,6.20
2022,04,15,18,05,6.20
2022,04,15,18,06,6.10
2022,04,15,18,07,6.10
2022,04,15,18,08,6.10
2022,04,15,18,09,6.10
2022,04,15,18,10,6.10
2022,04,15,18,11,6.10
2022,04,15,18,12,6.10
2022,04,15,18,13,6.10
2022,04,15,18,14,6.10
2022,04,15,18,15,6.20
2022,04,15,18,16,6.10
2022,04,15,18,17,6.20
2022,04,15,18,18,6.20
2022,04,15,18,19,6.20
2022,04,15,18,20,6.20
2022,04,15,18,21,6.10
2022,04,15,18,22,6.20
2022,04,15,18,23,6.10
2022,04,15,18,24,6.10
2022,04,15,18,25,6.10
2022,04,15,18,26,6.10
2022,04,15,18,27,6.10
2022,04,15,18,28,6.10
2022,04,15,18,29,6.00
2022,04,15,18,30,6.10
2022,04,15,18,31,6.00
2022,04,15,18,32,6.00
2022,04,15,18,33,6.00
2022,04,15,18,34,6.00
2022,04,15,18,35,6.00
2022,04,15,18,36,5.90
2022,04,15,18,37,5.90
2022,04,15,18,38,5.90
2022,04,15,18,39,5.90
2022,04,15,18,40,5.90
2022,04,15,18,41,5.90
2022,04,15,18,42,5.80
2022,04,15,18,43,5.80
2022,04,15,18,44,5.80
2022,04,15,18,45,5.80
2022,04,15,18,46,5.80
2022,04,15,18,47,5.80
2022,04,15,18,48,5.80
2022,04,15,18,49,5.80
2022,04,15,18,50,5.80
2022,04,15,18,51,5.80
2022,04,15,18,52,5.80
2022,04,15,18,53,5.80
2022,04,15,18,54,5.70
2022,04,15,18,55,5.70
2022,04,15,18,56,5.70
2022,04,15,18,57,5.70
2022,04,15,18,58,5.70
2022,04,15,18,59,5.70
2022,04,15,19,00,5.70
2022,04,15,19,01,5.70
2022,04,15,19,02,5.70
2022,04,15,19,03,5.60
2022,04,15,19,04,5.60
2022,04,15,19,05,5.60
